Home > Weather > Waterford > Past weeks

Flag for Ireland Past Weather in Waterford, Ireland — Yesterday and Last 2 Weeks

Now
55 °F

Passing clouds.


Feels Like: 51 °F
Forecast: 50 / 63 °F
Wind: 20 mph from West

Location: Cork Airport

Current Time: Jul 1, 2016 at 7:59:14 PM

Latest Report: Jul 1, 2016 at 7:00 PM


Visibility: N/A

Pressure: 29.77 "Hg

Humidity: 67%

Dew Point: 45 °F

Location of WaterfordLocation

Past Weather in Waterford — Graph

°F

Waterford Temperature Yesterday

Maximum temperature yesterday: 59 °F (at 3:00 PM)
Minimum temperature yesterday: 48 °F (at 3:00 AM)
Average temperature yesterday: 54 °F

High & Low Weather Summary for the Past Weeks

 TemperatureHumidityPressure
High72 °F (Jun 26, 1:30 PM)100% (Jun 18, 8:00 PM)30.21 "Hg (Jun 18, 8:00 PM)
Low48 °F (Jun 17, 3:00 AM)51% (Jun 16, 6:30 PM)29.59 "Hg (Jun 29, 5:30 AM)
Average56 °F83%29.97 "Hg
* Reported Jun 16 6:00 PM — Jul 1 6:30 PM, Waterford, Weather by CustomWeather, © 2016

Note: Actual official high and low records may vary slightly from our data, if they occured in-between our weather recording intervals... More about our weather records

Advertising

Waterford Weather History for the Previous 24 Hours

Scroll right to see more
 ConditionsComfort  
Time TempWeatherWind HumidityBarometerVisibility
6:30 PM
Fri, Jul 1
57 °FScattered clouds.20 mph63%29.77 "HgN/A
6:00 PM59 °FScattered clouds.20 mph63%29.77 "HgN/A
5:30 PM59 °FScattered clouds.22 mph59%29.74 "HgN/A
5:00 PM59 °FScattered clouds.22 mph63%29.74 "HgN/A
4:30 PM57 °FScattered clouds.15 mph63%29.74 "HgN/A
4:00 PM59 °FScattered clouds.22 mph59%29.74 "HgN/A
3:30 PM57 °FScattered clouds.18 mph77%29.74 "HgN/A
3:00 PM57 °FScattered clouds.18 mph72%29.77 "HgN/A
2:30 PM57 °FPartly sunny.22 mph63%29.74 "HgN/A
2:00 PM57 °FScattered clouds.21 mph77%29.74 "HgN/A
1:30 PM55 °FScattered clouds.20 mph77%29.77 "HgN/A
1:00 PM55 °FSprinkles. Broken clouds.18 mph67%29.74 "HgN/A
12:30 PM57 °FScattered clouds.17 mph72%29.74 "HgN/A
12:00 PM57 °FPartly sunny.18 mph63%29.74 "HgN/A
11:30 AM59 °FScattered clouds.20 mph68%29.74 "HgN/A
11:00 AM55 °FScattered clouds.15 mph72%29.74 "HgN/A
10:30 AM57 °FSprinkles. Broken clouds.20 mph63%29.74 "HgN/A
10:00 AM55 °FBroken clouds.17 mph72%29.77 "HgN/A
9:30 AM54 °FScattered clouds.16 mph77%29.74 "HgN/A
9:00 AM54 °FSprinkles. Broken clouds.17 mph88%29.74 "HgN/A
8:30 AM54 °FBroken clouds.13 mph88%29.74 "HgN/A
8:00 AM54 °FPartly sunny.15 mph94%29.74 "HgN/A
7:30 AM52 °FScattered clouds.12 mph94%29.74 "HgN/A
7:00 AM52 °FPartly sunny.9 mph94%29.74 "HgN/A
6:30 AM50 °FPartly sunny.7 mph100%29.77 "HgN/A
6:00 AM50 °FPartly cloudy.6 mph100%29.77 "HgN/A
5:30 AM52 °FPassing clouds.9 mph94%29.77 "HgN/A
5:00 AM50 °FPassing clouds.7 mph100%29.77 "HgN/A
4:30 AM52 °FPassing clouds.7 mph94%29.77 "HgN/A
4:00 AM52 °FPassing clouds.7 mph94%29.77 "HgN/A
3:30 AM50 °FPartly cloudy.8 mph100%29.77 "HgN/A
3:00 AM50 °FPassing clouds.7 mph100%29.77 "HgN/A
2:30 AM48 °FPassing clouds.3 mph94%29.77 "HgN/A
2:00 AM48 °FPassing clouds.6 mph94%29.77 "HgN/A
1:30 AM50 °FPassing clouds.8 mph94%29.77 "HgN/A
1:00 AM52 °FPassing clouds.9 mph94%29.77 "HgN/A
12:30 AM52 °FPartly cloudy.7 mph100%29.77 "HgN/A
12:00 AM54 °FSprinkles. Passing clouds.7 mph94%29.77 "HgN/A
11:30 PM
Thu, Jun 30
54 °FPartly cloudy.6 mph94%29.77 "HgN/A
11:00 PM54 °FPassing clouds.8 mph94%29.77 "HgN/A
10:30 PM55 °FBroken clouds.8 mph88%29.74 "HgN/A
10:00 PM55 °FBroken clouds.8 mph88%29.74 "HgN/A
9:30 PM55 °FBroken clouds.10 mph88%29.74 "HgN/A
9:00 PM57 °FPartly sunny.12 mph88%29.71 "HgN/A
8:30 PM57 °FBroken clouds.9 mph82%29.71 "HgN/A
8:00 PM57 °FPartly sunny.12 mph88%29.71 "HgN/A
7:30 PM57 °FPartly sunny.12 mph88%29.71 "HgN/A
7:00 PM57 °FBroken clouds.14 mph88%29.71 "HgN/A
Weather by CustomWeather, © 2016

See weather overviewHow to use our weather pages